Regional Weather Roundup
Issued by NWS

Home | Current Version | Previous Version | Graphics & Text | Print | Product List | Glossary Off
Versions: 1 2 3 4 5 6 7 8 9 10 11 12 13 14 15 16 17 18 19 20 21 22 23 24 25 26 27 28 29 30 31 32 33 34 35 36 37 38 39 40 41 42 43 44 45 46 47 48 49 50

000
ASUS43 KMKX 240711
RWRWI

WISCONSIN REGIONAL WEATHER ROUNDUP
NATIONAL WEATHER SERVICE MILWAUKEE/SULLIVAN WI
200 AM CDT FRI MAR 24 2017

NOTE: "FAIR" INDICATES FEW OR NO CLOUDS BELOW 12,000 FEET WITH NO
SIGNIFICANT WEATHER AND/OR OBSTRUCTIONS TO VISIBILITY.

WIZ001-002-006>008-014>016-023>028-240800-
NORTHWEST WISCONSIN

CITY           SKY/WX    TMP DP  RH WIND       PRES   REMARKS
SUPERIOR ARPT  CLOUDY    32  32 100 CALM      29.92S FOG
ASHLAND        FOG       32  31  96 CALM      29.93R VSB 1/2
HAYWARD        CLOUDY    34  31  88 NE5       29.89S FOG     WCI  30
SIREN          CLOUDY    34  33  97 CALM      29.88F FOG
CUMBERLAND     CLOUDY    34  34 100 E3        29.86F FOG
RICE LAKE      DRIZZLE   36  36  99 CALM      29.88F
CHETEK         DRIZZLE   36  36 100 CALM      29.87F
LADYSMITH      CLOUDY    35  34  97 CALM      29.91S FOG
EAU CLAIRE     LGT RAIN  38  37  97 E3        29.87F FOG
MENOMONIE      CLOUDY    38  37  94 E3        29.87F FOG
NEW RICHMOND   CLOUDY    37  37 100 CALM      29.86F FOG
OSCEOLA        LGT RAIN  37  37 100 SE5       29.90F WCI  33
$$

WIZ003>005-009-010-017-018-240800-
NORTH CENTRAL WISCONSIN

CITY           SKY/WX    TMP DP  RH WIND       PRES   REMARKS
MANITOWISH WTR DRIZZLE   32  32 100 CALM      29.89R
ARBOR VITAE    CLOUDY    34  32  92 CALM      29.88F
WOODRUFF       CLOUDY    34  32  92 CALM      29.88F
RHINELANDER    CLOUDY    34  30  85 CALM      29.88F FOG
EAGLE RIVER    MIX PCPN  32  31  96 CALM      29.88F
LAND O LAKES   MIX PCPN  32  32  99 CALM      29.90S
PHILLIPS       CLOUDY    34  32  92 CALM      29.87F
TOMAHAWK       CLOUDY    32  31  94 CALM      29.90F FOG
MEDFORD        DRIZZLE   34  33  97 CALM      29.88S
MERRILL        RAIN      33  33 100 CALM      29.89F
$$

WIZ029-030-035-036-043>047-240800-
CENTRAL WISCONSIN

CITY           SKY/WX    TMP DP  RH WIND       PRES   REMARKS
WAUSAU         LGT RAIN  35  35 100 CALM      29.88F FOG
MOSINEE        LGT RAIN  36  34  93 CALM      29.89F
MARSHFIELD     LGT RAIN  37  34  89 NE5       29.87F WCI  33
STEVENS POINT  LGT RAIN  35  35 100 CALM      29.90S
WAUPACA        LGT RAIN  38  34  85 CALM      29.92R
WAUTOMA        LGT RAIN  39  37  92 NE5       29.89F
WISC RAPIDS    CLOUDY    39  36  89 CALM      29.90F
CAMP DOUGLAS   CLOUDY    38  36  89 E3        29.86S
$$

WIZ011>013-019>022-031-037>040-048>050-240800-
NORTHEAST WISCONSIN

CITY           SKY/WX    TMP DP  RH WIND       PRES   REMARKS
ANTIGO         MIX PCPN  32  31  98 CALM      29.89F
SHAWANO        LGT RAIN  37  32  84 N3        29.92F
OCONTO         CLOUDY    35  32  89 NE3       29.92F
STURGEON BAY   CLOUDY    37  33  85 CALM      29.95R
GREEN BAY      CLOUDY    38  35  89 CALM      29.92R
MANITOWOC      LGT RAIN  38  35  89 S7        29.93R WCI  33
APPLETON       CLOUDY    37  32  81 SW8       29.90S WCI  31
CLINTONVILLE   LGT RAIN  36  30  80 CALM      29.90F
OSHKOSH        CLOUDY    38  35  89 SE7       29.90S WCI  33
$$

WIZ032>034-041-042-053>061-240800-
SOUTHWEST WISCONSIN

CITY           SKY/WX    TMP DP  RH WIND       PRES   REMARKS
LA CROSSE      CLOUDY    42  37  82 CALM      29.83F
SPARTA         CLOUDY    40  37  87 CALM      29.87S
VIROQUA        CLOUDY    40  37  89 S13G18    29.84F WCI  32
BOSCOBEL       CLOUDY    44  36  73 CALM      29.88F
PRAIRIE DU CHI MOCLDY    42  35  75 E6        29.86S
PLATTEVILLE    PTCLDY    43  38  80 SE9       29.87F
$$

WIZ056-057-062-063-064-067-068-240800-
SOUTH CENTRAL WISCONSIN

CITY           SKY/WX    TMP DP  RH WIND       PRES   REMARKS
REEDSBURG      LGT RAIN  42  37  83 S6        29.87F
BARABOO/DELLS  CLOUDY    43  35  73 SW12      29.87F
LONE ROCK      MOCLDY    43  36  76 SE3       29.89F
MINERAL POINT  CLOUDY    41  37  87 SE9       29.88F
MADISON        CLOUDY    44  35  70 S12       29.89F
MIDDLETON      CLOUDY    44  36  72 S10G17    29.89F
WATERTOWN      CLOUDY    45  37  74 S12       29.91S
MONROE         MOCLDY    43  36  75 S15G22    29.89F
JANESVILLE     CLOUDY    45  34  65 S10       29.91R
$$

WIZ051-052-058>065-066-070>072-240800-
SOUTHEAST WISCONSIN

CITY           SKY/WX    TMP DP  RH WIND       PRES   REMARKS
MILWAUKEE      MOCLDY    45  34  65 SW13      29.92R
WAUKESHA       PTCLDY    43  32  65 SW10      29.93R
MILWAUKEE/TIMM MOCLDY    43  32  65 SW6       29.92R
RACINE         CLOUDY    44  34  67 S10       29.92F
KENOSHA        CLOUDY    47  35  63 S16       29.91F
FOND DU LAC    LGT RAIN  39  34  82 NW6       29.93R WCI  35
SHEBOYGAN      LGT RAIN  37  35  92 MISG      29.91F
WEST BEND      CLOUDY    43  36  75 S3        29.91F
JUNEAU         MOCLDY    42  34  75 S5        29.92S
$$

LSZ147-162-240800-
LAKE SUPERIOR

STATION/POSITION TIME  TEMP    WIND        PRES    WAVE
                       AIR SEA DIR/SP/G            HT/PER
                 (UTC) (F)     (DEG/KT/KT) (MB)    (FT/S)
DEVILS ISLAND    0700   33     130/  3/  4 1014.2F
PORT WING        0640   33        CALM     1013.9R
SAXON HARBOR     0640   33     190/  1/  2 1013.5R
$$

LMZ867-665-643>646-240800-
LAKE MICHIGAN

STATION/POSITION TIME  TEMP    WIND        PRES    WAVE
                       AIR SEA DIR/SP/G            HT/PER
                 (UTC) (F)     (DEG/KT/KT) (MB)    (FT/S)
CHAMBERS ISLAND  0640   36     120/  3/  4 1013.5F
NORTHPORT PIER   0640   35     140/  3/  4 1014.6F
SISTER BAY       0636   37        CALM       N/A
KEWAUNEE LAKESHO 0648   38     230/  1/  4 1013.2R
SHEBOYGAN LAKESH 0700   39     140/ 16/ 16 1012.9F
PORT WASHINGTON  0630   40      10/  3/  5 1015.2R
MILWAUKEE LAKESH 0650   45     220/ 13/ 14   N/A
KENOSHA   LAKESH 0700   49     200/ 13/ 20 1013.2
$$

TC  - TEMPERATURE IN CELSIUS
VSB - VISIBILITY IN STATUTE MILES
WCI - WIND CHILL INDEX
HX  - HEAT INDEX




USA.gov is the U.S. government's official web portal to all federal, state and local government web resources and services.